This is the latest recevied weather packets stored in our database for station/object TA3MHA. If no packets are shown the sender has not sent any weather packets the latest 10 day(s).
| Time | Temp. | Humidity | Pressure | Rain* | Wind** | Luminosity | Snow |
|---|---|---|---|---|---|---|---|
| 1777542301 | 20.56° C | 47% | - | 0 mm | - | 843 W/m² | - |
| 1777542000 | 21.11° C | 47% | - | 0 mm | - | 846 W/m² | - |
| 1777541701 | 21.11° C | 45% | - | 0 mm | - | 842 W/m² | - |
| 1777541401 | 21.11° C | 46% | - | 0 mm | - | 833 W/m² | - |
| 1777541101 | 21.11° C | 44% | - | 0 mm | - | 840 W/m² | - |
| 1777540801 | 21.11° C | 46% | - | 0 mm | - | 832 W/m² | - |
| 1777540501 | 21.11° C | 46% | - | 0 mm | - | 834 W/m² | - |
| 1777540200 | 20.56° C | 46% | - | 0 mm | - | 868 W/m² | - |
| 1777539900 | 20.56° C | 46% | - | 0 mm | - | 900 W/m² | - |
| 1777539600 | 19.44° C | 47% | - | 0 mm | - | 885 W/m² | - |
| 1777539300 | 19.44° C | 48% | - | 0 mm | - | 921 W/m² | - |
| 1777539000 | 20° C | 48% | - | 0 mm | - | 549 W/m² | - |
| 1777538700 | 19.44° C | 51% | - | 0 mm | - | 708 W/m² | - |
| 1777538400 | 19.44° C | 47% | - | 0 mm | - | 361 W/m² | - |
| 1777538100 | 20° C | 48% | - | 0 mm | - | 806 W/m² | - |
| 1777537800 | 19.44° C | 50% | - | 0 mm | - | 776 W/m² | - |
| 1777537501 | 20° C | 46% | - | 0 mm | - | 737 W/m² | - |
| 1777537200 | 20.56° C | 45% | - | 0 mm | - | 749 W/m² | - |
| 1777536901 | 20.56° C | 44% | - | 0 mm | - | 748 W/m² | - |
| 1777536600 | 21.11° C | 42% | - | 0 mm | - | 756 W/m² | - |
| 1777536300 | 20.56° C | 40% | - | 0 mm | - | 242 W/m² | - |
| 1777536000 | 21.67° C | 42% | - | 0 mm | - | 729 W/m² | - |
| 1777535700 | 20.56° C | 40% | - | 0 mm | - | 713 W/m² | - |
| 1777535400 | 19.44° C | 40% | - | 0 mm | - | 696 W/m² | - |
| 1777535100 | 18.89° C | 43% | - | 0 mm | - | 680 W/m² | - |
* Rain latest hour (hover to see other rain measurements)
** Current wind speed in m/s (hover to see current wind gust speed)